Location: Unspecified
(41.5516°N, 88.1098°W)
Time: 09:02:22
(UTC-06:00)

Cosmos 1674 - Visible Passes

Search period start: 19 January 2017 00:00
Search period end: 29 January 2017 00:00
Orbit: 500 x 523 km, 82.5° (Epoch: 18 January)

Date Brightness Start Highest point End Pass type
(mag) Time Alt. Az. Time Alt. Az. Time Alt. Az.
19 Jan 5.8 18:36:02 10° W 18:37:41 12° WNW 18:39:19 10° NW visible
20 Jan 5.7 18:18:59 10° WSW 18:21:17 15° WNW 18:23:38 10° NW visible
21 Jan 5.5 18:02:09 10° WSW 18:04:56 19° WNW 18:07:44 10° NNW visible
22 Jan 5.2 17:45:27 10° SW 17:48:34 23° WNW 17:51:43 10° NNW visible
23 Jan 4.8 17:28:51 10° SW 17:32:13 29° WNW 17:35:38 10° NNW visible
